Probability
0 0 0 0 0 0 0 0 0 0 0 0 0 0 0 0 0 0 0 0 0 0 0 0 0 0 0 0 0 0 0 0 0 0 0 0 0 0 0 0 0 0 0 0
0 0 0 0 0 0 0 0 0 0 0 0 0 0 0 0 0 0 0 0 0 0 0 0 0 0 0 0 0 0 0 0 0 0 0 0 0 0 0 0 0 0 0 0
0 0 0 0 0 0 0 0 0 0 0 0 0 0 0 0 0 0 0 0 0 0 0 0 0 0 0 0 0 0 0 0 0 0 0 0 0 0 0 0 0 0 0 0
0 0 0 0 0 0 0 0 0 0 0 0 0 0 0 0 0 0 0 0 0 0 0 0 0 0 0 0 0 0 0 0 0 0 0 0 0 0 0 0 0 0 0 0
0 0 0 0 0 0 0 0 0 0 0 0 0 0 0 0 0 0 0 0 0 0 0 0 0 0 0 0 0 0 0 0 0 0 0 0 0 0 0 0 0 0 0 0
0 0 0 0 0 0 0 0 0 0 0 0 0 0 0 0 0 0 0 0 0 0 0 0 0 0 0 0 0 0 0 0 0 0 0 0 0 0 0 0 0 0 0 0
0 0 0 0 0 0 0 0 0 0 0 0 0 0 0 0 0 0 0 0 0 0 0 0 0 0 0 0 0 0 0 0 0 0 0 0 0 0 0 0 0 0 0 0
0 0 0 0 0 0 0 0 0 0 0 0 0 0 0 0 0 0 0 0 0 0 0 0 0 0 0 0 0 0 0 0 0 0 0 0 0 0 0 0 0 0 0 0
0 0 0 0 0 0 0 0 0 0 0 0 0 0 0 0 0 0 0 0 0 0 0 0 0 0 0 0 0 0 0 0 0 0 0 0 0 0 0 0 0 0 0 0
0 0 0 0 0 0 0 0 0 0 0 0 0 0 0 0 0 0 0 0 0 0 0 0 0 0 0 0 0 0 0 0 0 0 0 0 0 0 0 0 0 0 0 0
0 0 0 0 0 0 0 0 0 0 0 0 0 0 0 0 0 0 0 0 0 0 0 0 0 0 0 0 0 0 0 0 0 0 0 0 0 0 0 0 0 0 0 0
0 0 0 0 0 0 0 0 0 0 0 0 0 0 0 0 0 0 0 0 0 0 0 0 0 0 0 0 0 0 0 0 0 0 0 0 0 0 0 0 0 0 0 0
0 0 0 0 0 0 0 0 0 0 0 0 0 0 0 0 0 0 0 0 0 0 0 0 0 0 0 0 0 0 0 0 0 0 0 0 0 0 0 0 0 0 0 0
0 0 0 0 0 0 0 0 0 0 0 0 0 0 0 0 0 0 0 0 0 0 0 0 0 0 0 0 0 0 0 0 0 0 0 0 0 0 0 0 0 0 0 0
0 0 0 0 0 0 0 0 0 0 0 0 0 0 0 0 0 0 0 0 0 0 0 0 0 0 0 0 0 0 0 0 0 0 0 0 0 0 0 0 0 0 0 0
0 0 0 0 0 0 0 0 0 0 0 0 0 0 0 0 0 0 0 0 0 0 0 0 0 0 0 0 0 0 0 0 0 0 0 0 0 0 0 0 0 0 0 0
0 0 0 0 0 0 0 0 0 0 0 0 0 0 0 0 0 0 0 0 0 0 0 0 0 0 0 0 0 0 0 0 0 0 0 0 0 0 0 0 0 0 0 0
0 0 0 0 0 0 0 0 0 0 0 0 0 0 0 0 0 0 0 0 0 0 0 0 0 0 0 0 0 0 0 0 0 0 0 0 0 0 0 0 0 0 0 0
0 0 0 0 0 0 0 0 0 0 0 0 0 0 0 0 0 0 0 0 0 0 0 0 0 0 0 0 0 0 0 0 0 0 0 0 0 0 0 0 0 0 0 0
0 0 0 0 0 0 0 0 0 0 0 0 0 0 0 0 0 0 0 0 0 0 0 0 0 0 0 0 0 0 0 0 0 0 0 0 0 0 0 0 0 0 0 0
0 0 0 0 0 0 0 0 0 0 0 0 0 0 0 0 0 0 0 0 0 0 0 0 0 0 0 0 0 0 0 0 0 0 0 0 0 0 0 0 0 0 0 0
0 0 0 0 0 0 0 0 0 0 0 0 0 0 0 0 0 0 0 0 0 0 0 0 0 0 0 0 0 0 0 0 0 0 0 0 0 0 0 0 0 0 0 0
0 0 0 0 0 0 0 0 0 0 0 0 0 0 0 0 0 0 0 0 0 0 0 0 0 0 0 0 0 0 0 0 0 0 0 0 0 0 0 0 0 0 0 0
0 0 0 0 0 0 0 0 0 0 0 0 0 0 0 0 0 0 0 0 0 0 0 0 0 0 0 0 0 0 0 0 0 0 0 0 0 0 0 0 0 0 0 0
0 0 0 0 0 0 0 0 0 0 0 0 0 0 0 0 0 0 0 0 0 0 0 0 0 0 0 0 0 0 0 0 0 0 0 0 0 0 0 0 0 0 0 0
0 0 0 0 0 0 0 0 0 0 0 0 0 0 0 0 0 0 0 0 0 0 0 0 0 0 0 0 0 0 0 0 0 0 0 0 0 0 0 0 0 0 0 0
0 0 0 0 0 0 0 0 0 0 0 0 0 0 0 0 0 0 0 0 0 0 0 0 0 0 0 0 0 0 0 0 0 0 0 0 0 0 0 0 0 0 0 0
Wind_Speed
17 18 18 19 20 21 23 22 22 23 24 23 15 6 5 4 3 3 3 6 7 7 7 8 9 10 11 12 11 11 11 11 10 10 11 11 12 13 13 13 12 11 12 12
19 22 22 23 23 24 24 23 24 26 28 15 2 3 4 5 5 5 6 8 9 9 9 8 9 10 10 11 11 12 12 12 12 11 10 10 11 12 12 12 13 12 12 12
19 17 15 19 18 23 24 26 27 28 13 6 1 4 5 6 7 8 8 10 11 11 11 9 10 10 11 11 11 10 11 11 10 11 12 12 13 13 13 13 13 13 13 13
10 8 22 13 6 15 22 19 6 3 4 2 4 6 7 8 10 11 10 10 11 12 13 12 12 11 11 11 11 12 12 11 11 12 13 14 15 15 15 14 14 14 14 15
9 16 20 14 7 8 11 8 6 6 4 4 5 7 10 11 13 14 12 10 10 10 12 13 13 13 12 12 13 13 14 14 13 12 13 15 16 18 17 16 16 15 14 15
8 11 12 8 2 2 1 5 6 7 6 6 5 9 11 9 9 12 12 9 9 10 12 13 14 13 13 15 15 16 16 16 15 14 13 15 18 19 18 17 18 18 17 16
14 13 11 4 4 5 5 3 5 10 10 10 11 12 13 13 11 10 9 9 9 11 12 13 14 13 16 17 17 16 16 16 17 17 16 18 19 18 19 19 20 20 20 19
6 9 10 4 7 7 6 3 6 11 14 14 15 15 14 14 13 11 9 10 11 11 14 15 14 14 18 20 19 17 17 18 19 18 18 17 19 19 19 19 20 21 20 21
9 8 4 6 9 10 11 13 17 18 16 14 15 15 14 13 10 8 10 10 11 12 15 16 14 14 18 20 19 19 19 20 20 21 19 18 19 20 18 17 17 17 17 17
12 17 19 18 20 21 21 20 19 17 15 13 13 12 9 7 7 9 9 10 10 12 15 17 16 15 16 18 19 19 21 22 20 20 20 18 16 16 16 16 16 17 17 17
18 21 21 22 22 22 21 19 17 10 5 5 5 6 6 6 7 8 9 10 10 12 15 18 18 17 17 17 18 21 22 21 20 19 19 18 17 16 18 17 18 20 17 17
20 22 18 19 18 16 14 12 5 4 4 2 1 4 6 6 7 9 10 11 12 14 16 18 18 19 18 16 17 20 20 19 17 16 16 16 17 18 25 28 33 37 37 33
26 26 24 25 20 11 8 4 3 3 2 1 2 3 6 7 8 9 10 12 13 15 17 18 19 19 18 17 17 18 20 19 16 16 16 16 16 17 17 19 28 33 35 37
20 18 23 20 8 4 4 4 3 2 1 1 2 4 6 8 9 10 11 12 14 16 17 18 19 19 18 17 18 19 20 20 18 16 15 15 16 16 16 16 17 16 21 29
13 8 8 3 7 6 4 2 2 2 1 1 2 4 6 9 11 12 13 13 14 16 16 17 18 19 17 16 18 20 19 15 15 15 15 15 15 16 15 17 16 15 15 19
4 4 4 5 6 5 3 2 2 2 2 3 4 5 7 9 11 12 13 13 14 16 17 17 18 18 17 17 18 17 15 20 19 16 15 15 14 14 14 14 14 14 14 14
6 6 7 6 6 4 3 3 4 4 4 5 6 7 8 9 10 11 12 11 12 15 16 16 16 17 17 17 17 14 14 15 19 16 14 14 13 13 13 12 12 13 13 14
4 4 3 2 2 3 4 4 4 5 5 6 7 7 8 8 10 12 12 12 13 14 13 12 15 16 16 16 15 13 13 13 13 13 13 12 12 11 10 11 12 14 11 11
4 3 2 1 2 4 5 5 6 6 6 7 7 8 9 10 11 11 11 11 12 13 12 14 20 17 16 17 17 12 12 13 12 12 11 13 11 9 7 8 8 8 8 7
2 1 2 3 4 5 6 6 7 7 7 6 6 8 9 9 9 9 10 10 9 9 13 15 15 14 14 14 16 11 12 12 12 11 10 10 10 10 9 9 8 8 8 7
1 3 4 4 5 6 7 7 7 8 8 7 7 8 9 9 8 7 7 8 8 9 13 14 11 11 11 12 13 10 11 11 11 10 10 9 10 10 10 9 9 8 8 7
2 3 5 5 5 7 7 6 7 8 8 8 8 8 8 8 7 6 6 6 8 12 10 8 9 11 13 13 9 10 11 11 10 9 9 9 9 9 10 10 9 9 8 8
3 4 5 5 5 7 8 7 7 7 7 8 7 7 7 6 5 5 5 5 7 11 9 7 11 14 14 9 8 9 10 10 10 10 9 9 9 9 9 10 9 9 8 8
3 3 4 4 4 4 6 6 6 6 6 7 6 5 5 4 4 3 4 7 9 10 7 8 12 14 11 7 8 8 9 9 9 9 10 9 9 9 9 9 9 9 9 11
2 3 2 3 4 4 5 7 7 6 5 4 3 2 2 2 3 4 4 5 8 7 6 8 11 12 9 7 8 8 8 8 9 8 9 9 9 9 9 9 9 9 9 9
1 2 2 3 3 4 4 5 4 4 4 3 2 2 2 2 3 3 3 4 5 6 5 5 7 7 6 7 7 8 7 8 8 8 9 8 9 9 8 8 10 8 7 7
1 1 2 2 2 3 4 4 4 4 4 3 2 2 3 3 3 3 4 4 4 4 4 5 5 5 6 6 6 7 6 7 7 7 7 7 7 7 7 8 6 6 6 6
Wind_Direction
271 279 283 281 278 273 267 266 270 274 275 275 276 249 242 264 283 281 324 336 336 329 324 326 331 332 335 334 337 338 335 336 339 338 339 337 337 336 333 330 325 314 292 269
273 273 274 271 267 267 269 271 269 268 267 280 179 190 236 265 274 269 306 326 327 325 318 316 323 323 321 320 324 326 324 324 325 327 328 329 329 326 323 322 321 317 302 282
270 277 276 258 249 261 267 267 271 276 291 87 149 251 261 270 268 265 294 316 322 324 321 315 317 318 310 311 311 307 306 309 312 318 322 324 322 319 315 315 313 309 303 292
271 259 255 270 282 263 269 276 291 91 111 187 284 287 270 263 265 260 275 304 318 322 319 318 315 310 305 304 302 298 298 300 304 310 313 315 314 310 307 306 302 299 295 290
256 262 270 277 243 240 253 256 182 161 186 255 282 284 271 262 260 256 267 294 310 316 315 313 312 313 307 301 298 295 295 296 298 302 304 306 305 302 302 299 294 288 284 281
237 254 263 274 176 135 139 258 195 199 222 261 255 280 296 304 280 261 263 288 309 314 311 308 311 315 306 300 298 296 296 295 295 295 293 294 295 295 294 291 286 285 280 275
240 252 265 264 143 155 226 273 186 215 244 263 257 268 289 294 285 267 274 292 304 305 303 304 313 316 305 301 300 302 301 297 294 292 291 290 290 287 287 285 284 280 277 274
223 241 259 143 158 206 241 234 248 271 279 276 271 274 278 281 281 280 289 301 309 309 306 308 315 315 305 301 305 308 304 297 294 293 291 288 286 284 282 280 277 274 272 270
203 240 282 186 214 251 269 274 286 292 290 280 273 274 283 291 293 298 306 314 320 316 307 305 311 311 302 303 310 308 302 298 296 295 290 286 283 281 280 276 271 270 267 266
257 262 265 265 271 276 277 278 284 287 285 278 271 278 290 297 305 311 318 321 321 315 306 303 308 308 303 305 307 304 300 299 298 296 293 288 283 279 276 273 271 271 268 266
259 267 274 270 269 272 277 281 281 275 262 259 267 280 298 306 310 313 316 319 316 308 301 300 304 303 303 303 303 299 297 296 295 292 289 287 281 274 275 268 267 272 273 272
260 266 269 273 275 276 273 271 248 193 175 157 306 303 309 305 312 314 314 315 308 302 298 298 301 300 302 303 301 299 297 296 293 291 288 285 283 280 275 274 276 273 270 267
260 268 273 275 277 274 255 206 153 149 158 244 323 330 319 312 314 313 308 304 302 300 298 297 298 299 304 307 304 298 295 294 291 288 286 284 283 283 285 284 281 280 277 273
263 266 268 270 250 158 145 134 115 91 69 23 350 330 315 309 307 305 303 305 303 298 295 296 298 300 303 303 300 295 292 289 286 284 283 281 280 279 281 284 287 285 287 286
258 245 253 134 125 134 135 150 190 203 184 279 318 311 310 308 305 304 303 302 299 295 296 299 300 301 305 305 301 296 293 289 287 285 282 279 277 276 276 276 278 283 286 287
134 125 146 168 171 163 174 211 251 262 278 298 302 302 303 299 296 295 295 296 299 301 302 303 301 305 310 306 302 299 296 293 293 289 285 281 278 276 275 275 277 279 278 279
164 190 191 196 194 202 227 257 275 291 299 299 299 300 297 295 293 291 292 294 295 294 297 299 306 310 309 309 309 304 300 298 296 293 289 285 280 276 274 275 276 276 279 283
70 82 101 133 209 254 268 279 290 296 295 296 297 294 292 289 291 295 299 304 304 300 300 311 314 314 317 316 312 306 306 305 304 303 302 301 295 281 272 272 275 280 287 294
90 87 69 329 302 288 285 288 292 293 291 288 287 286 284 281 283 290 299 305 306 308 317 323 322 325 320 319 321 315 313 312 314 317 320 324 328 326 310 298 301 312 321 328
101 19 308 292 288 277 276 281 285 284 279 276 275 277 279 278 279 289 298 297 291 303 314 317 319 321 323 326 329 321 321 322 326 331 337 341 345 349 353 357 1 4 7 13
257 279 282 283 285 282 279 282 283 280 280 272 266 268 272 280 283 289 295 298 302 319 318 315 319 325 332 335 332 332 331 332 334 339 344 349 351 354 358 2 10 16 22 29
252 270 280 287 291 291 290 286 277 274 276 272 264 263 270 280 288 289 282 280 306 317 316 318 324 336 343 342 341 341 342 342 343 346 350 354 358 1 5 8 13 20 29 37
255 265 277 280 280 284 290 286 274 268 266 268 269 270 273 280 287 290 299 307 316 317 320 322 333 346 350 348 347 348 350 353 354 355 357 359 2 6 11 15 20 25 31 39
254 259 271 277 274 276 287 294 290 280 269 272 267 263 270 280 280 263 285 303 312 317 323 333 347 355 354 353 350 352 356 359 360 0 3 6 8 11 15 20 25 30 35 41
255 270 273 292 296 293 295 299 300 299 298 296 296 291 282 276 279 296 304 307 317 327 330 342 353 354 354 352 353 355 359 3 2 3 7 11 12 13 15 17 20 25 28 32
265 287 296 285 280 294 301 303 308 318 323 325 332 349 339 321 307 307 310 314 324 332 339 340 343 346 350 350 350 354 357 358 2 7 8 9 11 15 16 17 22 23 26 28
359 345 330 329 328 325 319 317 323 333 337 337 339 350 350 346 343 339 332 329 332 337 341 339 339 343 345 345 345 349 353 355 356 359 1 4 5 6 7 12 14 14 18 24